FW0114 Weather Reports


time (UTC)temp
C
wind
direction
speed
KPH
gust
KPH
rain 1hr
cm
rain 24hr
cm
rain mn
cm
humidity
%
barometer
mb
20260504050555 7 199 0.0 1.6 0.00 0.00 0.00 74 993.2
20260504050125 7 234 0.0 1.6 0.00 0.00 0.00 74 993.2
20260504045553 7 250 0.0 14.5 0.00 0.00 0.00 74 993.3
20260504045053 7 252 0.0 12.9 0.00 0.00 0.00 74 993.3
20260504044552 7 238 0.0 9.7 0.00 0.00 0.00 73 993.4
20260504044051 7 236 0.0 9.7 0.00 0.00 0.00 73 993.4
20260504043551 7 238 0.0 6.4 0.00 0.00 0.00 72 993.4
20260504043057 8 229 0.0 3.2 0.00 0.00 0.00 72 993.4
20260504042548 8 221 0.0 11.3 0.00 0.00 0.00 72 993.3
20260504042048 8 242 1.6 11.3 0.00 0.00 0.00 72 993.4
20260504041548 8 245 0.0 1.6 0.00 0.00 0.00 71 993.4
20260504041046 8 237 0.0 3.2 0.00 0.00 0.00 70 993.4
20260504040545 8 249 0.0 6.4 0.00 0.00 0.00 70 993.3
20260504040044 8 235 0.0 12.9 0.00 0.00 0.00 70 993.3
20260504035544 8 239 0.0 12.9 0.00 0.00 0.00 69 993.3
20260504035044 8 255 0.0 11.3 0.00 0.00 0.00 69 993.4
20260504034550 8 229 0.0 8.0 0.00 0.00 0.00 69 993.3
20260504034044 8 271 0.0 8.0 0.00 0.00 0.00 68 993.3
20260504033544 8 238 0.0 4.8 0.00 0.00 0.00 68 993.3
20260504033045 9 255 0.0 11.3 0.00 0.00 0.00 67 993.4
20260504032544 9 254 0.0 17.7 0.00 0.00 0.00 67 993.3
20260504032044 9 232 1.6 17.7 0.00 0.00 0.00 66 993.3
20260504031602 9 251 1.6 16.1 0.00 0.00 0.00 65 993.3
20260504031042 9 236 0.0 16.1 0.00 0.00 0.00 65 993.2
20260504030542 9 213 0.0 16.1 0.00 0.00 0.00 64 993.3
20260504030043 9 240 0.0 17.7 0.00 0.00 0.00 64 993.4
20260504025542 9 248 4.8 17.7 0.00 0.00 0.00 63 993.5
20260504025042 9 248 0.0 11.3 0.00 0.00 0.00 62 993.5
20260504024543 9 258 0.0 11.3 0.00 0.00 0.00 62 993.6
20260504024042 9 229 0.0 16.1 0.00 0.00 0.00 61 993.6
20260504023541 9 217 0.0 16.1 0.00 0.00 0.00 60 993.6
20260504023041 9 261 0.0 11.3 0.00 0.00 0.00 60 993.7
20260504022545 9 238 0.0 8.0 0.00 0.00 0.00 59 993.7
20260504022041 9 244 0.0 4.8 0.00 0.00 0.00 58 993.7
20260504021540 9 232 0.0 16.1 0.00 0.00 0.00 58 993.7
20260504021043 9 212 0.0 16.1 0.00 0.00 0.00 57 993.7
20260504020542 9 252 0.0 12.9 0.00 0.00 0.00 57 993.7
20260504020041 10 268 0.0 19.3 0.00 0.00 0.00 57 993.7
20260504015540 10 242 0.0 19.3 0.00 0.00 0.00 56 993.7
20260504015040 10 238 1.6 22.5 0.00 0.00 0.00 55 993.6
20260504014539 10 217 4.8 22.5 0.00 0.00 0.00 55 993.7
20260504014040 10 237 4.8 19.3 0.00 0.00 0.00 55 993.8
20260504013539 10 263 0.0 17.7 0.00 0.00 0.00 55 993.7
20260504013039 9 249 6.4 19.3 0.00 0.00 0.00 55 993.8
20260504012539 9 229 0.0 11.3 0.00 0.00 0.00 55 993.7
20260504012039 9 246 0.0 11.3 0.00 0.00 0.00 55 993.6
20260504011541 9 240 0.0 16.1 0.00 0.00 0.00 54 993.6
20260504011038 9 258 0.0 14.5 0.00 0.00 0.00 54 993.5
20260504010538 10 242 1.6 16.1 0.00 0.00 0.00 54 993.5
20260504010043 10 194 1.6 16.1 0.00 0.00 0.00 54 993.5
20260504005538 9 252 0.0 11.3 0.00 0.00 0.00 55 993.4
20260504005038 9 234 0.0 12.9 0.00 0.00 0.00 54 993.3
20260504004538 10 236 0.0 3.2 0.00 0.00 0.00 54 993.3
20260504004038 10 236 0.0 6.4 0.00 0.00 0.00 54 993.3
20260504003537 10 248 0.0 14.5 0.00 0.00 0.00 55 993.4
20260504003043 10 221 0.0 14.5 0.00 0.00 0.00 55 993.2
20260504002536 10 221 0.0 9.7 0.00 0.00 0.00 55 993.2
20260504002036 10 231 0.0 9.7 0.00 0.00 0.00 55 993.2
20260504001545 10 219 0.0 1.6 0.00 0.00 0.00 56 993.2
20260504001036 10 220 0.0 12.9 0.00 0.00 0.00 55 993.2
20260504000535 10 256 1.6 14.5 0.00 0.00 0.00 55 993.2
20260504000035 10 189 1.6 20.9 0.00 0.00 0.00 55 993.2
20260503235535 10 194 0.0 12.9 0.00 0.00 0.00 55 993.2
20260503235036 10 188 0.0 11.3 0.00 0.00 0.00 55 993.2
20260503234535 10 214 0.0 12.9 0.00 0.00 0.00 55 993.2
20260503234038 10 227 1.6 19.3 0.00 0.00 0.00 54 993.1
20260503233535 11 248 1.6 19.3 0.00 0.00 0.00 54 993.2
20260503233035 10 218 1.6 11.3 0.00 0.00 0.00 54 993.2
20260503232534 11 228 0.0 12.9 0.00 0.00 0.00 54 993.2
20260503232033 11 230 0.0 17.7 0.00 0.00 0.00 53 993.2
20260503231545 11 246 1.6 25.7 0.00 0.00 0.00 52 993.2
20260503231033 11 241 6.4 25.7 0.00 0.00 0.00 51 993.2
20260503230533 11 192 3.2 19.3 0.00 0.00 0.00 50 993.2
20260503230033 11 211 3.2 20.9 0.00 0.00 0.00 50 993.2
20260503225533 11 232 1.6 22.5 0.00 0.00 0.00 49 993.1
20260503225032 11 259 8.0 29.0 0.00 0.00 0.00 48 993.1
20260503224531 12 240 6.4 29.0 0.00 0.00 0.00 47 993.2
20260503224031 12 232 11.3 27.4 0.00 0.00 0.00 46 993.1
20260503223530 12 246 1.6 25.7 0.00 0.00 0.00 46 993.1
20260503223030 12 195 0.0 12.9 0.00 0.00 0.00 46 993.1
20260503222529 12 229 0.0 14.5 0.00 0.00 0.00 46 993.2
20260503222029 12 205 1.6 14.5 0.00 0.00 0.00 45 993.2
20260503221529 13 237 0.0 17.7 0.00 0.00 0.00 45 993.2
20260503221031 13 176 1.6 19.3 0.00 0.00 0.00 41 993.2
20260503220533 13 223 3.2 17.7 0.00 0.00 0.00 33 993.2
20260503220036 13 230 3.2 17.7 0.00 0.00 0.00 33 993.2
20260503215530 13 251 4.8 20.9 0.00 0.00 0.00 32 993.1
20260503215029 13 232 4.8 27.4 0.00 0.00 0.00 34 993.1
20260503214530 13 244 11.3 25.7 0.00 0.00 0.00 32 993.1
20260503214029 13 244 6.4 24.1 0.00 0.00 0.00 34 993.2
20260503213528 13 273 0.0 19.3 0.00 0.00 0.00 34 993.2
20260503213046 13 257 0.0 19.3 0.00 0.00 0.00 34 993.3
20260503212528 13 240 0.0 16.1 0.00 0.00 0.00 34 993.3
20260503212026 13 285 1.6 17.7 0.00 0.00 0.00 31 993.3
20260503211526 14 227 3.2 24.1 0.00 0.00 0.00 35 993.4
20260503211028 14 262 3.2 24.1 0.00 0.00 0.00 35 993.4
20260503210527 14 267 3.2 20.9 0.00 0.00 0.00 33 993.4
20260503210025 13 257 1.6 25.7 0.00 0.00 0.00 35 993.3
20260503205524 13 236 3.2 25.7 0.00 0.00 0.00 35 993.4
20260503205027 13 246 3.2 24.1 0.00 0.00 0.00 34 993.4
20260503204531 13 248 3.2 24.1 0.00 0.00 0.00 34 993.5
20260503204023 13 218 9.7 22.5 0.00 0.00 0.00 35 993.5
20260503203523 14 238 1.6 22.5 0.00 0.00 0.00 36 993.5
20260503203025 13 252 1.6 17.7 0.00 0.00 0.00 37 993.4
20260503202522 13 267 1.6 27.4 0.00 0.00 0.00 33 993.6
20260503202022 13 250 8.0 27.4 0.00 0.00 0.00 35 993.7
20260503201524 13 236 9.7 22.5 0.00 0.00 0.00 35 993.7
20260503201019 12 265 0.0 25.7 0.00 0.00 0.00 36 993.9
20260503200519 13 267 6.4 25.7 0.00 0.00 0.00 34 994.1
20260503200019 14 254 1.6 22.5 0.00 0.00 0.00 37 994.0
20260503195517 13 235 1.6 11.3 0.00 0.00 0.00 40 994.0
20260503195016 12 252 0.0 27.4 0.00 0.00 0.00 37 994.1
20260503194521 12 250 11.3 27.4 0.00 0.00 0.00 36 994.3
20260503194015 12 251 0.0 19.3 0.00 0.00 0.00 38 994.3
20260503193515 12 271 4.8 19.3 0.00 0.00 0.00 38 994.3
20260503193014 12 241 3.2 19.3 0.00 0.00 0.00 37 994.6
20260503192512 12 236 0.0 30.6 0.00 0.00 0.00 38 994.5
20260503192014 12 232 4.8 30.6 0.00 0.00 0.00 37 994.7
20260503191512 13 229 0.0 16.1 0.00 0.00 0.00 37 994.7
20260503191016 12 232 3.2 16.1 0.00 0.00 0.00 38 994.8
20260503190510 12 230 0.0 12.9 0.00 0.00 0.00 41 994.8
20260503190012 12 311 0.0 24.1 0.00 0.00 0.00 35 994.9
20260503185511 12 269 1.6 29.0 0.00 0.00 0.00 39 995.0
20260503185008 12 264 6.4 22.5 0.00 0.00 0.00 40 995.0
20260503184509 12 265 1.6 14.5 0.00 0.00 0.00 39 995.1
20260503184010 12 205 1.6 16.1 0.00 0.00 0.00 39 995.1
20260503183507 12 258 0.0 1.6 0.00 0.00 0.00 42 995.1
20260503183006 12 339 0.0 17.7 0.00 0.00 0.00 39 995.2
20260503182509 12 346 1.6 17.7 0.00 0.00 0.00 41 995.3
20260503182005 12 323 0.0 11.3 0.00 0.00 0.00 37 995.3
20260503181506 12 267 0.0 22.5 0.00 0.00 0.00 41 995.4
20260503181004 11 257 1.6 22.5 0.00 0.00 0.00 39 995.5
20260503180503 11 338 0.0 12.9 0.00 0.00 0.00 38 995.6
20260503180005 12 252 0.0 20.9 0.00 0.00 0.00 41 995.6
20260503175501 12 235 1.6 22.5 0.00 0.00 0.00 39 995.7
20260503175001 12 224 1.6 20.9 0.00 0.00 0.00 42 995.7
20260503174618 12 258 3.2 20.9 0.00 0.00 0.00 44 995.8
20260503174059 12 255 1.6 14.5 0.00 0.00 0.00 41 995.9
20260503173558 12 15 1.6 17.7 0.00 0.00 0.00 40 995.8
20260503173130 11 273 0.0 16.1 0.00 0.00 0.00 42 996.0
20260503172556 11 246 0.0 16.1 0.00 0.00 0.00 41 995.9
20260503172058 11 265 1.6 19.3 0.00 0.00 0.00 44 996.0
20260503171554 11 254 0.0 25.7 0.00 0.00 0.00 43 996.1
20260503171053 11 219 1.6 25.7 0.00 0.00 0.00 45 996.1
20260503170553 11 234 6.4 22.5 0.00 0.00 0.00 44 996.1
20260503150535 9 259 0.0 20.9 0.00 0.03 0.00 51 997.8
20260503131008 7 269 0.0 0.0 0.00 0.03 0.00 60 998.7
20260503130510 7 308 0.0 0.0 0.00 0.03 0.00 62 998.7
20260503110540 3 271 0.0 0.0 0.00 0.03 0.00 79 998.6
20260503081527 3 272 0.0 0.0 0.00 0.03 0.00 73 998.7
20260503081019 3 271 0.0 0.0 0.00 0.03 0.00 73 998.7
20260503080519 3 272 0.0 0.0 0.00 0.03 0.00 73 998.7
20260503072519 3 269 0.0 0.0 0.00 0.03 0.00 74 998.7
20260503072017 3 269 0.0 0.0 0.00 0.03 0.00 74 998.7
20260503071526 3 269 0.0 0.0 0.00 0.03 0.00 74 998.7
20260503071017 3 269 0.0 0.0 0.00 0.03 0.00 74 998.7
20260503070517 3 269 0.0 0.0 0.00 0.03 0.00 74 998.7
20260503055009 3 260 0.0 0.0 0.00 0.03 0.00 81 999.0
20260503054519 3 260 0.0 0.0 0.00 0.03 0.00 81 999.0
20260503054009 3 260 0.0 0.0 0.00 0.03 0.00 81 999.0